Find KUIPER-00425

NORAD ID: 68934 Int'l Des: 2026-098R Owner: KUIP Country: US Constellation: amazon-leo operational
LEOCIRCULAR

Live Position

Loading 3D Globe...

About KUIPER-00425

Description loading...

Upcoming Passes

Passes for default location (London). Set your location on the main map for personalized predictions.

Altitude History

Loading altitude history...

Two-Line Element Set

1 68934U 26098R 26125.91668981 .00040411 00000-0 12540-2 0 9993
2 68934 51.8756 271.4434 0017227 1.7613 4.0138 15.32856110 1308
Epoch: May 5, 2026 • Age: 9 hours

Current Status

Altitude 479.1 km
Velocity 7.62 km/s
Sub-Earth Point 4.85°N, 123.49°E
Launch Date Apr 30, 2026
Age 6 days
Type internet

Technical Details

Classification Payload
Mass 490.00 kg
Dry Mass 490.00 kg
Total Mass 490.00 kg
Length 1.80 m
Diameter 0.70 m
Span 5.00 m
Shape Box + 2 pan
Manufacturer KUIP
Bus Type Kuiper
Phase Status In Orbit
Owner/State KUIP/US

Most Searched